Location: Casone le Fosse
(44.6547°N, 12.1103°E)
Time: 04:22:35
(UTC+00:00)

CZ-4C R/B - Pass Details

Date: 29 October 2020
Orbit: 624 x 1378 km, 63.4° (Epoch: 01 December)

Event Time Altitude Azimuth Distance (km) Brightness Sun altitude
Rises 18:40:55 0° 323° (NW) 3,744 6.2 -28.4°
Reaches altitude 10° 18:43:31 10° 330° (NNW) 2,900 5.4 -28.8°
Enters shadow 18:49:39 44° 30° (NNE) 1,599 3.4 -29.9°
